124P/Mrkos (2020)

Japanese version
Home page
Updated on November 9, 2019

---------------------------------------------------------------------

* Profile

* Orbital Elements

Epoch 2020 Apr. 21.0 TT = JDT 2458960.5
T 2020 Apr. 26.88940 TT                                 Williams
q   1.6475227            (2000.0)            P               Q
n   0.16307525     Peri.  183.85531     -0.99734513     +0.07274096
a   3.3180074      Node     0.37084     -0.04453533     -0.57254576
e   0.5034602      Incl.   31.51282     -0.05761334     -0.81663952
P   6.04
From 1855 observations 1991 Mar. 15-2019 Oct. 31, mean residual 0".5.

* Finding Charts

* Magnitudes Graph

        m1 = 15.8 + 5 log d + 5.0 log r

---------------------------------------------------------------------

The orbital elements are published on M.P.E.C. 2019-V116.
The charts are made with StellaNavigator Ver.10 (AstroArts).
The magnitudes graphs are made with Comet for Windows.

---------------------------------------------------------------------

Copyright(C) Seiichi Yoshida (comet@aerith.net). All rights reserved.